YMLT

Launceston Airport

Airport
ICAO code
YMLT
IATA Code
LST
Summary
ICAO Region
APAC
ICAO Territory
Location

Launceston, Tasmania

Serving
Launceston
Elevation
562 ft
Coordinates
41° 32' 43" S , 147° 12' 37" E
KCC
Metar
YMLT 191100Z AUTO 00000KT 9999 // NCD 08/04 Q1027 RF00.0/000.2

Launceston Airport is a regional airport on the outskirts of Launceston, Tasmania. The airport is located in the rural area of Western Junction 15 km from Launceston city centre.

Climatology

Mild temperate oceanic climate (Köppen climate classification Cfb).

Airport map

Aerial View

SKYbrary Partners:

Safety knowledge contributed by: